EN

Hourly Weather Labowiec

Today, 3 August, Tuesday

Time Temperature Precipitation Wind Pressure Humidity
00:00 +12°C° 0 mm 1 mps 716 mmHg 92%
01:00 +12°C° 0 mm 1 mps 716 mmHg 92%
02:00 +12°C° 0 mm 1 mps 716 mmHg 92%
03:00 +12°C° 0 mm 1 mps 716 mmHg 92%
04:00 +11°C° 0 mm 1 mps 716 mmHg 92%
05:00 +13°C° 0 mm 1 mps 716 mmHg 88%
06:00 +14°C° 0 mm 1 mps 717 mmHg 85%
07:00 +15°C° 0 mm 0 mps 717 mmHg 81%
08:00 +19°C° 0.1 mm 1 mps 717 mmHg 71%
09:00 +21°C° 0.1 mm 1 mps 717 mmHg 62%
10:00 +23°C° 0.1 mm 1 mps 717 mmHg 52%
11:00 +23°C° 0.1 mm 1 mps 717 mmHg 51%
12:00 +23°C° 0.1 mm 1 mps 717 mmHg 51%
13:00 +23°C° 0.1 mm 1 mps 717 mmHg 50%
14:00 +23°C° 0 mm 1 mps 716 mmHg 54%
15:00 +22°C° 0 mm 1 mps 716 mmHg 57%
16:00 +22°C° 0 mm 1 mps 716 mmHg 60%
17:00 +21°C° 0 mm 1 mps 716 mmHg 65%
18:00 +18°C° 0 mm 0 mps 716 mmHg 70%
19:00 +16°C° 0 mm 0 mps 716 mmHg 75%
20:00 +16°C° 0 mm 0 mps 716 mmHg 78%
21:00 +16°C° 0 mm 1 mps 716 mmHg 80%
22:00 +15°C° 0 mm 1 mps 716 mmHg 82%
23:00 +15°C° 0 mm 1 mps 715 mmHg 82%

Tomorrow, 4 August, Wednesday

Time Temperature Precipitation Wind Pressure Humidity
00:00 +15°C° 0 mm 1 mps 715 mmHg 82%
01:00 +15°C° 0 mm 1 mps 715 mmHg 82%
02:00 +15°C° 0 mm 1 mps 715 mmHg 82%
03:00 +15°C° 0 mm 1 mps 715 mmHg 82%
04:00 +15°C° 0 mm 1 mps 715 mmHg 82%
05:00 +15°C° 0.1 mm 1 mps 715 mmHg 81%
06:00 +16°C° 0.1 mm 1 mps 715 mmHg 81%
07:00 +16°C° 0.1 mm 0 mps 715 mmHg 81%
08:00 +19°C° 0.1 mm 1 mps 715 mmHg 77%
09:00 +20°C° 0.1 mm 1 mps 716 mmHg 73%
10:00 +21°C° 0.1 mm 1 mps 716 mmHg 69%
11:00 +22°C° 0.4 mm 1 mps 715 mmHg 67%
12:00 +23°C° 0.4 mm 2 mps 715 mmHg 66%
13:00 +23°C° 0.4 mm 2 mps 715 mmHg 64%
14:00 +21°C° 0.3 mm 2 mps 715 mmHg 69%
15:00 +21°C° 0.3 mm 2 mps 715 mmHg 74%
16:00 +20°C° 0.3 mm 2 mps 715 mmHg 80%
17:00 +19°C° 0 mm 2 mps 715 mmHg 84%
18:00 +18°C° 0 mm 1 mps 715 mmHg 88%
19:00 +16°C° 0 mm 1 mps 714 mmHg 93%
20:00 +16°C° 0 mm 1 mps 714 mmHg 93%
21:00 +15°C° 0 mm 1 mps 714 mmHg 94%
22:00 +14°C° 0 mm 0 mps 714 mmHg 95%
23:00 +13°C° 0 mm 0 mps 714 mmHg 95%

Day after tomorrow, 5 August, Thursday

Time Temperature Precipitation Wind Pressure Humidity
00:00 +13°C° 0 mm 0 mps 714 mmHg 96%
01:00 +13°C° 0 mm 0 mps 714 mmHg 96%
02:00 +13°C° 0 mm 0 mps 714 mmHg 96%
03:00 +13°C° 0 mm 0 mps 713 mmHg 95%
04:00 +13°C° 0 mm 0 mps 713 mmHg 95%
05:00 +14°C° 0.1 mm 0 mps 713 mmHg 95%
06:00 +15°C° 0.1 mm 1 mps 713 mmHg 95%
07:00 +15°C° 0.1 mm 1 mps 713 mmHg 94%
08:00 +18°C° 0 mm 1 mps 713 mmHg 86%
09:00 +20°C° 0 mm 1 mps 713 mmHg 78%
10:00 +22°C° 0 mm 1 mps 713 mmHg 70%
11:00 +22°C° 0.2 mm 1 mps 712 mmHg 72%
12:00 +22°C° 0.2 mm 1 mps 712 mmHg 73%
13:00 +23°C° 0.2 mm 2 mps 712 mmHg 75%
14:00 +21°C° 1.2 mm 1 mps 711 mmHg 81%
15:00 +20°C° 1.2 mm 1 mps 711 mmHg 87%
16:00 +19°C° 1.2 mm 1 mps 710 mmHg 93%
17:00 +19°C° 1.6 mm 1 mps 709 mmHg 94%
18:00 +17°C° 1.6 mm 2 mps 709 mmHg 95%
19:00 +17°C° 1.6 mm 2 mps 708 mmHg 96%
20:00 +17°C° 2.4 mm 2 mps 708 mmHg 97%
21:00 +16°C° 2.4 mm 2 mps 708 mmHg 97%
22:00 +16°C° 2.4 mm 2 mps 707 mmHg 98%
23:00 +16°C° 1.8 mm 2 mps 708 mmHg 98%

6 August, Friday

Time Temperature Precipitation Wind Pressure Humidity
00:00 +15°C° 1.8 mm 2 mps 708 mmHg 97%
01:00 +15°C° 1.8 mm 2 mps 708 mmHg 97%
02:00 +15°C° 0.4 mm 2 mps 708 mmHg 97%
03:00 +15°C° 0.4 mm 2 mps 708 mmHg 97%
04:00 +15°C° 0.4 mm 2 mps 708 mmHg 97%
05:00 +15°C° 0.3 mm 2 mps 709 mmHg 96%
06:00 +15°C° 0.3 mm 2 mps 709 mmHg 95%
07:00 +15°C° 0.3 mm 2 mps 709 mmHg 94%
08:00 +15°C° 0 mm 2 mps 710 mmHg 94%
09:00 +15°C° 0 mm 2 mps 710 mmHg 93%
10:00 +15°C° 0 mm 2 mps 710 mmHg 92%
11:00 +16°C° 0 mm 2 mps 711 mmHg 87%
12:00 +17°C° 0 mm 2 mps 711 mmHg 82%
13:00 +18°C° 0 mm 2 mps 711 mmHg 77%
14:00 +18°C° 0.1 mm 3 mps 711 mmHg 75%
15:00 +19°C° 0.1 mm 3 mps 711 mmHg 72%
16:00 +20°C° 0.1 mm 3 mps 711 mmHg 70%
17:00 +18°C° 0.1 mm 2 mps 712 mmHg 76%
18:00 +18°C° 0.1 mm 1 mps 712 mmHg 83%
19:00 +14°C° 0.1 mm 0 mps 712 mmHg 90%
20:00 +15°C° 0 mm 1 mps 712 mmHg 91%
21:00 +14°C° 0 mm 1 mps 712 mmHg 92%
22:00 +14°C° 0 mm 1 mps 712 mmHg 93%
23:00 +13°C° 0 mm 1 mps 713 mmHg 93%

7 August, Saturday

Time Temperature Precipitation Wind Pressure Humidity
00:00 +13°C° 0 mm 1 mps 713 mmHg 93%
01:00 +13°C° 0 mm 1 mps 713 mmHg 93%
02:00 +13°C° 0 mm 1 mps 713 mmHg 93%
03:00 +13°C° 0 mm 1 mps 713 mmHg 93%
04:00 +12°C° 0 mm 1 mps 713 mmHg 92%
05:00 +14°C° 0 mm 1 mps 713 mmHg 87%
06:00 +16°C° 0 mm 1 mps 714 mmHg 81%
07:00 +19°C° 0 mm 1 mps 714 mmHg 75%
08:00 +20°C° 0 mm 1 mps 714 mmHg 68%
09:00 +22°C° 0 mm 1 mps 715 mmHg 60%
10:00 +24°C° 0 mm 1 mps 715 mmHg 52%
11:00 +25°C° 0 mm 1 mps 715 mmHg 49%
12:00 +26°C° 0 mm 1 mps 715 mmHg 46%
13:00 +27°C° 0 mm 1 mps 715 mmHg 43%
14:00 +27°C° 0 mm 1 mps 715 mmHg 44%
15:00 +27°C° 0 mm 1 mps 714 mmHg 44%
16:00 +27°C° 0 mm 1 mps 714 mmHg 45%
17:00 +25°C° 0 mm 1 mps 714 mmHg 55%
18:00 +23°C° 0 mm 1 mps 714 mmHg 64%
19:00 +20°C° 0 mm 1 mps 714 mmHg 74%
20:00 +19°C° 0 mm 2 mps 714 mmHg 75%
21:00 +18°C° 0 mm 2 mps 714 mmHg 76%
22:00 +17°C° 0 mm 2 mps 714 mmHg 77%
23:00 +17°C° 0 mm 2 mps 714 mmHg 78%

8 August, Sunday

Time Temperature Precipitation Wind Pressure Humidity
00:00 +16°C° 0 mm 2 mps 714 mmHg 79%
01:00 +16°C° 0 mm 2 mps 714 mmHg 79%
02:00 +16°C° 0 mm 2 mps 714 mmHg 79%
03:00 +15°C° 0 mm 2 mps 714 mmHg 78%
04:00 +14°C° 0 mm 3 mps 714 mmHg 78%
05:00 +17°C° 0 mm 3 mps 714 mmHg 74%
06:00 +19°C° 0 mm 3 mps 714 mmHg 70%
07:00 +20°C° 0 mm 3 mps 714 mmHg 66%
08:00 +22°C° 0 mm 3 mps 715 mmHg 60%
09:00 +25°C° 0 mm 3 mps 715 mmHg 54%
10:00 +26°C° 0 mm 4 mps 716 mmHg 48%
11:00 +26°C° 0 mm 4 mps 716 mmHg 52%
12:00 +26°C° 0 mm 4 mps 716 mmHg 56%
13:00 +25°C° 0 mm 4 mps 717 mmHg 59%
14:00 +22°C° 1.1 mm 3 mps 717 mmHg 71%
15:00 +20°C° 1.1 mm 3 mps 717 mmHg 83%
16:00 +18°C° 1.1 mm 3 mps 718 mmHg 94%
17:00 +17°C° 0.1 mm 2 mps 718 mmHg 95%
18:00 +17°C° 0.1 mm 2 mps 719 mmHg 95%
19:00 +16°C° 0.1 mm 2 mps 719 mmHg 95%
20:00 +15°C° 0 mm 2 mps 719 mmHg 95%
21:00 +14°C° 0 mm 1 mps 720 mmHg 96%
22:00 +13°C° 0 mm 1 mps 720 mmHg 96%
23:00 +13°C° 0 mm 1 mps 720 mmHg 95%
Show more